TOM5BK LCPH-EGKK

Flight info

Callsign TOM5BK
Flight time N/A
Altitude 40000
Route GENOS M42 ALKIS DCT BANRO UN128 RIKSO DCT LMO UN128 PEREN/N0491F430 DCT DISOR DCT LONTA UL608 DOLEV DCT PODOB DCT LIKVI DCT EVTON DCT SABAD DCT RIFEN DCT SAFFA DCT ELMUR DCT RIPUS DCT DITON DCT HOC DCT LUL DCT RLP DCT ROTSI DCT KOTUN DCT NINAL DCT KESAX DCT KUNAV
Aircraft B789/H-SDE1E2E3FGHIJ2J3J4J5M1RWXY/KG1D1

Departure

Time 2026-04-14 14:16
Airport Paphos International Airport (LCPH)

Arrival

Time N/A
Airport London Gatwick Airport (EGKK)
Time Latitude Longitude Altitude Speed Heading
2026-04-14 12:58 34.71277 32.48412 29 ft 0 kts 163°
2026-04-14 14:03 34.71289 32.48408 29 ft 2 kts 163°
2026-04-14 14:03 34.71304 32.48403 30 ft 2 kts 163°
2026-04-14 14:03 34.71318 32.48398 30 ft 2 kts 163°
2026-04-14 14:04 34.71332 32.48393 31 ft 2 kts 163°
2026-04-14 14:04 34.71347 32.48388 31 ft 2 kts 163°
2026-04-14 14:04 34.71361 32.48382 32 ft 2 kts 150°
2026-04-14 14:04 34.71373 32.48371 32 ft 2 kts 135°
2026-04-14 14:05 34.71383 32.48358 32 ft 2 kts 121°
2026-04-14 14:05 34.71390 32.48341 33 ft 2 kts 109°
2026-04-14 14:05 34.71394 32.48324 33 ft 2 kts 110°
2026-04-14 14:05 34.71400 32.48307 33 ft 2 kts 111°
2026-04-14 14:06 34.71406 32.48291 33 ft 2 kts 128°
2026-04-14 14:06 34.71411 32.48283 34 ft 0 kts 135°
2026-04-14 14:09 34.71411 32.48284 33 ft 0 kts 135°
2026-04-14 14:09 34.71400 32.48311 33 ft 8 kts 113°
2026-04-14 14:09 34.71362 32.48429 33 ft 17 kts 111°
2026-04-14 14:09 34.71360 32.48553 34 ft 13 kts 69°
2026-04-14 14:10 34.71402 32.48665 35 ft 18 kts 65°
2026-04-14 14:10 34.71466 32.48830 38 ft 18 kts 63°
2026-04-14 14:10 34.71522 32.48856 41 ft 9 kts 310°
2026-04-14 14:10 34.71555 32.48765 42 ft 15 kts 291°
2026-04-14 14:11 34.71602 32.48615 44 ft 20 kts 290°
2026-04-14 14:11 34.71650 32.48459 45 ft 13 kts 290°
2026-04-14 14:11 34.71695 32.48387 47 ft 9 kts 348°
2026-04-14 14:11 34.71758 32.48400 49 ft 11 kts 17°
2026-04-14 14:12 34.71854 32.48441 50 ft 17 kts 20°
2026-04-14 14:12 34.71969 32.48483 53 ft 12 kts 348°
2026-04-14 14:12 34.72018 32.48396 55 ft 15 kts 290°
2026-04-14 14:12 34.72062 32.48253 56 ft 20 kts 290°
2026-04-14 14:13 34.72119 32.48069 57 ft 25 kts 289°
2026-04-14 14:13 34.72179 32.47870 56 ft 25 kts 290°
2026-04-14 14:13 34.72239 32.47673 55 ft 24 kts 289°
2026-04-14 14:13 34.72298 32.47479 54 ft 23 kts 290°
2026-04-14 14:14 34.72353 32.47300 55 ft 22 kts 289°
2026-04-14 14:14 34.72347 32.47168 53 ft 14 kts 207°
2026-04-14 14:14 34.72257 32.47126 49 ft 10 kts 195°
2026-04-14 14:14 34.72218 32.47163 48 ft 4 kts 110°
2026-04-14 14:15 34.72218 32.47164 48 ft 0 kts 110°
2026-04-14 14:15 34.72179 32.47289 50 ft 46 kts 109°
2026-04-14 14:15 34.71977 32.47954 53 ft 117 kts 110°
2026-04-14 14:15 34.71621 32.49123 56 ft 174 kts 109°
2026-04-14 14:16 34.71185 32.50515 688 ft 176 kts 110°
2026-04-14 14:16 34.70786 32.51893 1364 ft 176 kts 107°
2026-04-14 14:16 34.70405 32.53368 1838 ft 190 kts 105°
2026-04-14 14:17 34.69301 32.56440 2714 ft 217 kts 136°
2026-04-14 14:17 34.67960 32.57121 3450 ft 212 kts 174°
2026-04-14 14:17 34.66617 32.56840 4465 ft 190 kts 198°
2026-04-14 14:17 34.65481 32.56094 4968 ft 198 kts 217°
2026-04-14 14:18 34.64753 32.54660 5410 ft 203 kts 258°
2026-04-14 14:18 34.64611 32.52967 6020 ft 203 kts 261°
2026-04-14 14:18 34.64408 32.51260 6511 ft 209 kts 262°
2026-04-14 14:18 34.64219 32.49475 6983 ft 218 kts 263°
2026-04-14 14:19 34.64039 32.47621 7502 ft 224 kts 263°
2026-04-14 14:19 34.63862 32.45716 8016 ft 230 kts 264°
2026-04-14 14:19 34.63686 32.43766 8454 ft 239 kts 264°
2026-04-14 14:19 34.63500 32.41679 8719 ft 261 kts 264°
2026-04-14 14:20 34.63351 32.39407 9119 ft 280 kts 272°
2026-04-14 14:20 34.63562 32.36988 9610 ft 290 kts 278°
2026-04-14 14:20 34.63832 32.34557 10115 ft 294 kts 278°
2026-04-14 14:20 34.64026 32.32918 10448 ft 296 kts 278°